Location: Puketoi
(40.5833°S, 176.0167°E)
Time: 14:33:47
(UTC+00:00)

YAOGAN 6 - Pass Details

Date: 08 February 2023
Orbit: 447 x 482 km, 97.1° (Epoch: 22 March)

Event Time Altitude Azimuth Distance (km) Brightness Sun altitude
Exits shadow 15:01:10 25° 75° (ENE) 965 4.3 -24.3°
Maximum altitude 15:02:11 30° 108° (ESE) 855 4.3 -24.2°
Drops below altitude 10° 15:05:18 10° 170° (S) 1,637 6.0 -23.8°
Sets 15:07:32 0° 181° (S) 2,530 6.9 -23.6°
